Wind_Speed
36 38 38 37 36 33 33 35 34 32 31 31 32 33 34 36 36 34 34 34 35 36 37 37 36 33 32 32 32 28 24 23 23 22 21 21 22 24 27 30 28 25 26 29 32 33 34 35 35 34 32 32 32 31 29 28 28 26 23 22 21 20
35 37 35 34 35 32 31 32 33 34 34 34 35 34 35 35 33 30 31 34 35 37 38 37 36 35 34 32 31 29 26 24 23 23 22 21 23 26 29 29 25 23 25 29 31 33 34 35 33 31 29 30 30 29 27 27 26 24 22 22 21 19
33 33 30 29 33 34 34 33 34 37 37 35 36 36 35 30 28 29 33 37 36 36 37 37 37 37 35 32 31 30 27 25 24 23 23 22 25 28 30 27 22 22 26 29 31 33 35 33 30 29 28 28 29 29 28 27 26 24 22 22 20 20
32 30 28 29 32 35 37 38 41 44 43 41 41 41 39 33 30 32 36 38 37 36 36 37 39 38 34 31 31 30 27 25 24 24 24 24 27 29 29 23 19 22 26 29 32 34 34 31 29 29 28 28 29 29 29 28 27 25 22 21 20 20
33 31 30 30 31 33 37 40 42 45 47 48 48 48 46 42 40 39 40 40 39 38 37 38 39 37 34 32 31 30 28 25 25 26 25 26 28 29 27 21 18 22 26 29 33 35 33 30 29 29 29 29 30 31 30 29 28 25 21 20 21 20
37 35 32 32 33 35 39 40 39 40 44 48 50 49 48 46 45 45 45 44 41 39 37 36 36 36 37 35 33 31 29 27 27 27 26 27 29 29 25 20 19 22 26 30 33 34 32 29 30 30 30 30 31 32 32 30 27 24 23 22 22 22
42 41 36 35 36 37 40 41 40 40 41 42 45 47 46 46 46 46 46 46 44 40 37 35 35 37 38 38 36 33 30 29 29 28 27 28 29 29 25 19 19 23 27 31 33 33 31 29 30 30 30 31 32 33 32 29 27 25 25 23 23 25
44 45 43 42 43 42 42 42 43 44 42 40 41 42 42 43 43 44 45 46 46 43 41 38 36 37 39 39 39 35 32 31 30 29 29 29 30 30 25 19 20 24 27 31 32 32 30 28 29 30 31 31 31 31 31 30 28 27 25 23 23 25
47 47 48 49 49 49 48 46 45 45 40 37 37 39 41 43 43 44 46 47 47 46 45 42 38 39 41 41 40 37 34 33 33 31 30 29 30 30 24 19 21 24 27 31 32 31 29 27 28 31 33 32 31 31 31 31 29 28 25 23 22 22
52 51 52 53 53 54 53 51 48 46 44 42 43 47 50 51 50 50 49 48 48 48 48 46 42 41 42 43 42 39 37 35 35 33 31 30 30 29 24 20 22 25 28 30 31 30 28 27 29 32 32 31 30 30 31 31 30 28 27 24 22 20
56 55 57 58 57 56 57 56 54 53 53 53 55 58 59 57 55 53 52 51 51 52 51 48 44 41 41 43 43 40 38 35 34 34 32 30 30 27 24 22 23 26 28 30 30 29 27 27 30 32 30 29 29 30 31 31 29 28 27 25 23 21
58 57 58 59 59 58 59 60 59 59 60 59 60 62 62 61 59 56 55 53 53 54 51 46 42 40 39 42 42 39 37 34 33 33 31 29 28 26 24 23 25 27 28 30 29 28 27 28 29 29 28 27 28 30 31 30 29 28 27 26 23 21
59 58 58 58 58 59 61 62 62 63 63 62 62 63 63 63 61 59 56 52 52 52 49 42 39 39 39 41 41 38 36 34 33 31 29 28 27 25 25 24 25 27 29 29 28 28 27 27 28 27 25 26 28 30 31 30 28 27 26 25 23 22
60 59 58 58 58 59 61 62 63 63 63 63 63 63 63 62 60 57 53 51 50 51 46 40 37 37 39 40 39 37 35 34 32 29 27 27 27 26 25 25 26 28 29 28 28 28 28 27 27 25 24 25 28 30 31 30 28 27 25 24 23 23
63 61 60 60 61 61 60 60 61 61 61 61 60 60 60 59 57 53 50 49 49 49 45 38 37 37 38 38 37 36 35 33 30 28 28 28 28 26 26 26 27 29 29 28 28 28 28 27 26 24 23 25 28 31 31 29 28 26 25 24 23 23
65 63 62 62 63 62 60 57 56 55 54 54 55 54 53 53 52 49 47 47 46 47 43 38 37 36 37 37 36 35 33 32 30 29 30 30 28 26 26 27 28 30 29 28 28 28 27 27 25 23 24 26 29 31 31 29 28 27 25 24 23 23
65 64 64 64 65 63 60 57 54 53 52 52 51 47 43 41 41 41 42 44 46 45 39 35 35 34 36 36 34 34 33 32 32 31 31 30 27 26 26 27 29 31 30 28 29 29 27 26 25 24 24 28 31 32 31 30 29 28 27 25 24 23
64 64 65 66 66 64 62 61 59 57 56 53 48 44 40 36 34 35 36 38 42 42 37 34 33 34 35 35 34 34 34 34 33 31 30 28 26 26 26 28 30 32 31 29 30 29 28 27 25 24 26 31 33 32 30 30 30 30 28 27 25 24
60 61 63 65 65 62 61 60 58 54 52 50 49 47 44 38 35 35 34 34 36 35 34 32 32 34 36 36 35 35 35 34 31 29 28 27 26 26 27 29 32 33 30 30 31 30 28 27 25 25 29 33 33 31 30 30 30 31 30 29 27 26
56 57 59 60 61 61 59 58 54 50 47 46 47 48 45 40 37 37 37 36 34 29 28 29 31 33 34 35 35 35 35 33 29 28 27 27 27 26 27 30 33 32 30 31 32 30 29 27 25 28 32 33 32 30 30 30 31 31 31 30 28 27
53 55 56 53 54 56 55 55 53 51 48 45 44 45 45 43 40 40 39 37 33 29 27 28 30 33 35 36 36 35 34 32 29 27 28 29 28 27 28 31 33 31 30 32 32 31 29 26 27 31 33 32 31 30 30 30 31 31 31 31 29 28
51 52 53 52 52 51 47 48 50 49 45 42 42 40 38 38 37 38 38 35 32 31 30 30 32 35 37 38 36 34 33 31 29 29 29 29 28 28 30 32 33 30 29 32 32 32 29 26 29 32 32 32 32 31 30 30 31 31 31 31 30 30
49 50 51 52 53 49 43 41 42 42 40 38 38 34 28 28 30 32 34 32 33 33 32 31 33 36 37 37 35 34 33 32 31 32 31 29 30 31 32 34 33 30 30 32 33 33 30 28 31 32 32 34 33 32 31 30 31 31 32 31 31 31
48 49 49 50 50 47 43 38 34 35 37 37 35 30 25 25 27 29 29 27 30 33 33 33 34 34 35 35 35 34 34 34 35 35 31 29 31 32 33 34 32 30 31 32 33 33 30 30 32 33 34 35 34 33 32 31 31 32 33 32 32 31
47 47 47 47 45 43 39 35 33 33 34 35 34 31 29 29 27 24 23 22 26 32 35 35 34 33 34 34 35 35 35 35 35 34 30 30 31 32 34 33 31 31 33 33 34 33 30 31 32 34 36 36 35 34 33 32 33 34 34 34 33 32
45 44 43 42 40 38 35 33 35 36 34 34 36 34 32 33 28 22 22 23 25 31 35 35 34 34 34 34 34 35 36 35 33 31 30 30 31 34 35 33 31 33 34 35 36 33 31 32 33 36 38 37 35 34 33 32 34 35 36 35 34 32
43 41 38 37 35 34 34 35 37 38 37 36 37 37 35 35 31 26 24 25 27 31 33 33 33 32 33 34 33 34 35 35 32 30 30 30 33 37 36 33 33 35 35 36 36 33 32 33 35 38 38 36 35 34 32 31 33 35 36 36 35 33
42 40 36 34 33 32 34 37 39 41 42 41 40 39 38 37 36 32 28 28 29 32 34 33 32 32 31 32 33 33 33 32 31 30 30 30 34 38 37 35 35 36 36 38 37 34 33 34 37 40 38 35 34 33 30 29 31 33 35 35 35 35
40 39 37 35 34 33 34 37 41 43 45 45 42 40 40 41 40 37 32 30 31 34 36 37 36 34 32 31 34 35 32 30 30 30 29 29 33 37 38 37 37 37 38 39 38 36 35 36 40 41 37 35 33 30 29 29 29 31 33 34 34 35
39 40 40 38 37 36 35 36 40 45 48 48 44 40 40 42 43 42 37 32 33 35 36 38 38 37 34 31 34 36 35 32 32 32 31 30 31 36 38 38 38 38 39 40 38 37 36 38 41 40 36 34 32 28 28 28 28 30 31 33 34 35
39 40 41 40 39 38 37 36 38 43 48 50 48 44 41 42 43 43 40 34 33 34 35 37 39 38 37 35 35 38 39 39 38 36 34 31 31 35 38 38 37 38 39 40 39 37 37 40 40 37 35 34 30 27 27 26 26 28 29 30 32 34
40 40 42 41 39 39 37 35 35 37 40 44 47 48 47 47 46 44 42 38 34 33 34 37 39 39 39 38 39 40 41 42 40 38 34 30 32 36 38 38 37 38 40 40 39 39 39 40 38 35 35 33 29 27 26 25 25 25 26 27 29 32
38 40 42 41 39 39 38 37 34 31 31 33 38 44 48 51 52 49 46 44 41 38 37 38 38 38 39 39 40 41 42 42 41 37 33 32 36 38 38 39 39 38 39 40 40 40 40 38 36 35 35 33 30 27 26 25 24 23 24 26 28 30
35 38 40 41 40 40 39 40 38 33 30 28 31 37 44 50 53 52 49 47 46 44 44 43 40 38 40 41 42 43 43 44 41 36 34 36 39 40 39 40 39 38 39 41 40 40 40 38 36 36 36 34 31 28 27 26 24 24 25 27 28 30
31 33 37 40 40 38 38 40 41 39 35 32 32 35 38 42 48 51 50 48 47 46 47 47 45 42 41 41 42 43 44 44 40 35 35 39 41 41 40 38 37 38 41 41 40 41 41 40 39 38 37 36 32 29 28 27 26 26 27 28 29 30
26 27 33 38 38 35 34 38 40 40 38 36 36 38 38 39 42 45 48 48 45 44 44 46 46 44 42 40 40 41 41 40 38 36 38 41 42 40 39 38 38 40 41 41 41 41 40 41 41 39 38 36 32 30 29 29 28 28 29 30 31 30
27 29 34 39 40 37 35 36 38 40 40 38 39 39 39 41 39 37 43 46 46 45 44 44 43 43 42 40 38 38 37 36 35 36 37 38 39 39 38 39 39 39 40 41 41 40 41 43 43 41 39 35 31 30 30 30 30 30 30 32 32 31
Wind_Direction
288 288 291 289 287 283 278 279 277 275 277 279 285 291 294 300 303 304 301 300 308 311 310 311 310 309 311 311 308 303 302 303 303 303 303 305 309 311 312 315 319 325 329 330 331 332 332 333 334 338 339 335 330 327 327 328 328 325 322 321 322 324
293 292 295 293 289 281 276 277 272 269 269 272 278 282 288 298 301 298 296 300 308 310 309 309 307 307 309 309 306 300 299 301 301 301 300 302 307 310 312 314 319 327 329 331 334 335 336 336 339 342 342 337 332 330 329 329 328 325 322 323 324 323
290 293 295 293 289 281 275 274 274 276 273 271 273 277 286 295 294 291 292 297 304 307 306 306 305 305 305 305 304 298 295 298 299 298 296 299 303 308 311 313 320 327 329 333 337 340 340 340 342 344 344 340 335 333 331 328 327 326 325 327 328 327
283 290 290 288 289 283 277 272 273 277 276 274 275 278 284 286 282 282 287 293 299 301 301 303 303 301 300 300 300 296 293 294 296 296 295 296 301 306 309 312 321 325 329 336 340 344 345 342 341 343 346 345 339 337 336 332 330 331 331 331 330 330
277 284 284 282 285 283 282 278 275 273 272 273 276 279 283 282 280 281 285 289 293 294 296 298 297 295 295 295 295 293 291 292 294 294 293 294 301 306 308 311 319 323 330 337 342 347 348 341 339 343 348 348 343 341 343 340 336 334 333 332 330 328
271 279 282 279 281 281 284 285 283 279 275 273 275 278 281 282 280 282 286 288 288 290 294 296 292 289 290 290 290 288 287 292 293 291 290 293 300 304 306 310 316 322 330 337 343 349 349 341 338 344 349 350 348 347 347 343 338 335 334 331 327 324
264 272 277 277 278 282 284 287 287 287 285 279 277 279 281 282 281 282 286 287 287 287 289 293 289 285 285 287 287 285 285 290 291 289 287 290 297 301 302 307 314 320 329 336 343 348 349 341 337 343 349 352 353 351 346 341 337 337 335 330 322 321
261 266 270 271 274 277 280 285 287 287 286 281 278 280 281 282 283 285 288 288 287 285 284 287 287 284 283 285 287 284 283 287 287 287 286 287 294 298 297 303 312 318 326 335 341 346 348 341 337 342 348 353 355 351 344 340 339 338 335 330 321 320
259 261 263 267 271 273 274 278 283 284 281 277 277 279 281 283 284 286 289 290 288 285 283 282 281 281 282 284 286 285 283 284 283 283 283 284 291 295 292 297 308 314 323 332 339 344 346 339 336 342 349 352 352 348 344 341 340 336 334 329 321 317
258 259 261 265 269 271 270 271 274 276 276 275 276 278 280 282 283 285 287 288 288 286 284 281 278 278 281 283 284 284 284 283 280 279 280 283 289 290 287 292 303 310 320 330 336 341 342 336 336 342 348 351 348 346 344 341 338 333 330 326 321 314
260 260 262 265 266 266 266 266 268 270 272 274 275 278 280 281 282 283 284 285 285 285 284 282 279 277 280 282 282 283 283 281 278 276 278 282 285 285 283 288 298 307 317 327 333 338 337 333 336 341 345 347 345 344 343 340 335 329 325 324 322 318
262 263 264 265 264 263 263 264 266 268 270 271 273 275 279 281 282 283 284 284 283 282 281 281 278 277 280 281 281 280 278 277 277 275 276 280 281 281 283 286 294 303 314 323 330 334 332 331 335 339 341 341 341 342 341 338 331 325 323 324 324 321
263 264 264 265 265 264 263 263 264 266 268 269 271 274 278 280 281 283 284 283 281 279 278 277 277 278 279 280 278 276 275 274 274 274 274 276 277 280 283 285 291 300 310 320 328 331 327 329 333 335 336 336 337 339 338 334 328 323 323 325 324 319
262 263 263 264 266 265 265 265 264 265 266 268 271 274 276 278 280 282 284 282 279 277 276 275 277 279 278 277 274 272 271 271 271 271 271 272 275 280 282 283 289 297 307 317 326 327 323 326 330 331 331 331 333 335 334 330 324 320 321 325 325 319
262 261 262 263 265 265 266 267 267 266 265 267 271 274 275 277 279 281 280 279 276 274 274 273 275 277 276 274 271 268 267 268 268 268 269 271 275 280 279 280 286 293 303 314 323 324 319 322 326 326 327 327 329 331 330 325 321 317 317 322 324 322
261 261 261 262 263 263 264 266 266 265 265 268 273 276 277 277 277 277 275 273 272 273 273 272 274 275 273 271 268 265 265 266 266 267 270 272 275 278 276 276 282 289 299 310 319 320 317 319 321 321 323 324 326 327 325 321 318 314 311 314 319 321
259 260 261 261 261 260 261 262 264 265 267 273 276 277 278 279 277 275 273 269 269 272 273 272 273 272 268 265 264 264 265 266 267 269 272 271 274 276 272 272 279 286 296 306 314 318 316 315 317 317 319 323 324 323 320 317 314 311 308 307 311 317
258 259 259 259 259 260 260 261 263 267 269 271 272 273 276 278 278 277 276 272 269 270 271 268 269 268 262 259 262 266 267 268 268 270 270 269 274 274 268 270 278 286 294 302 311 316 315 313 314 314 318 322 323 320 315 313 310 308 306 303 305 311
258 258 258 258 259 259 260 260 263 267 269 270 268 268 270 272 274 274 274 274 273 271 267 265 265 264 260 260 265 268 268 267 266 267 266 269 275 271 267 271 279 285 290 299 309 315 314 312 311 314 318 321 321 318 313 310 308 306 304 302 302 306
258 257 257 258 259 258 257 257 259 259 262 266 264 262 264 267 268 271 274 275 274 271 264 263 263 260 260 263 268 270 268 264 262 263 264 270 273 269 268 273 280 285 288 299 309 313 313 310 311 316 319 321 320 316 311 307 306 304 302 301 301 302
257 256 256 256 257 258 256 255 256 256 258 260 259 258 263 267 266 268 272 273 271 266 259 259 260 260 262 266 269 269 264 260 260 263 267 270 271 271 272 276 281 283 288 301 309 311 310 309 313 318 320 322 320 314 308 305 303 302 300 299 299 300
255 255 254 253 253 255 256 255 255 256 257 256 254 255 262 271 271 267 268 266 263 262 259 257 259 261 263 265 265 260 257 257 260 266 268 270 273 276 277 279 280 280 291 304 308 309 307 308 315 320 322 323 320 313 307 303 300 299 298 297 297 298
253 252 252 251 251 251 252 253 254 252 248 246 249 250 256 269 272 272 273 265 257 258 258 257 259 261 260 262 260 256 254 256 262 267 268 270 276 279 279 280 278 280 294 305 307 307 305 307 316 321 323 324 320 315 307 302 299 297 295 295 296 297
249 249 249 249 250 249 247 247 249 245 240 241 243 239 241 253 263 272 275 266 254 251 254 255 256 257 256 257 258 257 256 258 264 267 267 273 278 278 279 278 276 283 297 304 306 306 303 307 316 321 324 324 321 316 308 302 299 295 293 293 294 295
247 247 247 247 247 247 243 237 236 236 236 239 235 229 233 242 252 265 271 268 255 248 251 253 253 254 254 256 259 259 260 262 265 265 268 276 279 277 278 276 278 289 299 303 305 302 300 306 315 321 324 323 320 316 308 302 299 296 294 293 292 293
244 244 245 245 244 243 238 228 225 226 230 234 232 229 234 239 244 256 265 267 258 250 251 252 252 253 253 258 261 261 261 261 261 263 270 278 279 278 276 273 280 292 298 303 303 298 297 305 314 320 322 321 319 316 309 302 299 297 296 294 292 292
241 240 240 242 241 239 233 224 222 223 226 232 232 231 234 240 244 247 253 258 255 251 250 250 252 252 254 259 261 259 260 261 260 262 270 276 277 278 274 272 282 292 296 300 299 293 295 303 312 318 320 319 318 316 311 304 300 299 298 296 294 292
239 236 233 235 237 235 229 224 224 225 227 231 233 232 234 241 245 245 247 253 252 248 246 247 250 251 254 258 259 259 259 259 258 261 268 271 273 274 271 272 284 291 295 297 294 290 292 301 310 315 317 318 317 316 313 307 303 302 300 298 296 293
237 233 228 229 232 232 230 226 225 224 226 230 232 232 234 239 243 244 244 251 254 250 247 248 249 251 253 256 259 257 252 254 258 264 269 269 270 271 268 273 284 290 293 294 290 287 290 299 308 312 315 317 316 316 316 311 307 305 304 301 298 295
237 232 226 227 231 233 234 232 230 227 226 230 233 234 237 239 242 243 244 250 255 253 251 250 251 252 252 253 257 253 249 254 263 271 274 271 269 268 268 276 284 288 292 291 286 285 288 297 306 311 315 316 314 316 318 314 310 308 307 305 302 299
236 231 226 227 233 236 237 237 236 233 231 234 237 238 239 240 240 241 242 247 253 256 258 256 253 253 251 249 251 251 251 256 264 272 274 270 266 265 269 276 282 287 290 287 283 282 287 297 306 311 315 314 311 314 318 316 311 308 307 306 304 301
234 229 225 226 232 236 238 241 239 237 237 240 243 243 242 241 241 242 242 243 249 256 260 257 253 252 251 250 250 252 255 259 265 271 270 265 262 264 268 273 280 286 287 282 280 280 286 297 306 312 314 312 307 309 315 315 311 308 308 307 305 302
236 227 222 222 227 234 239 243 242 241 243 246 250 249 245 242 244 248 248 246 247 251 254 257 256 253 253 253 253 255 258 261 266 269 265 258 258 261 266 271 279 284 282 279 276 278 286 297 307 312 313 310 304 303 309 311 309 307 308 309 307 304
240 229 221 219 225 233 240 245 248 247 247 251 255 254 251 248 248 252 254 252 251 250 251 255 258 257 257 257 257 258 260 262 265 266 261 255 256 260 265 272 279 280 278 274 273 278 287 296 306 311 311 308 301 299 304 307 306 305 307 309 309 305
242 233 226 223 228 235 239 244 248 250 249 249 248 247 250 252 250 252 255 256 255 253 251 252 255 258 260 260 260 261 261 262 262 259 256 256 257 262 268 273 276 275 273 271 273 281 286 293 303 308 309 306 297 294 300 303 302 302 304 307 307 305
235 233 231 231 232 235 238 240 243 246 248 249 247 243 245 252 255 254 255 257 258 256 253 253 254 257 260 263 265 265 264 263 260 255 254 255 259 265 271 272 272 273 272 272 276 282 284 291 301 305 306 302 292 291 297 299 299 299 301 304 305 303
221 221 226 230 230 230 233 236 238 240 242 245 248 247 248 254 257 253 253 257 258 257 254 253 254 256 259 265 268 268 267 266 264 261 259 258 262 269 273 272 273 274 273 274 277 281 284 291 298 303 302 296 288 290 295 296 295 296 299 302 303 301
Height
10818 10818 10819 10819 10819 10818 10817 10816 10817 10817 10816 10814 10813 10812 10812 10812 10811 10811 10809 10808 10806 10806 10805 10804 10802 10801 10799 10796 10795 10794 10793 10792 10791 10791 10790 10789 10788 10787 10786 10784 10783 10781 10780 10777 10774 10772 10769 10767 10765 10765 10763 10760 10756 10754 10752 10749 10746 10744 10742 10740 10739 10738
10814 10814 10815 10815 10815 10814 10813 10812 10812 10812 10811 10811 10810 10809 10809 10809 10808 10808 10806 10805 10804 10803 10802 10802 10800 10798 10797 10794 10793 10792 10792 10791 10790 10789 10788 10788 10787 10785 10784 10782 10781 10780 10778 10775 10773 10771 10769 10766 10765 10763 10761 10758 10754 10752 10751 10748 10746 10744 10741 10739 10738 10737
10810 10810 10812 10812 10812 10811 10810 10809 10808 10808 10807 10807 10807 10806 10806 10806 10806 10804 10803 10802 10802 10801 10799 10799 10798 10796 10794 10792 10791 10790 10790 10789 10788 10787 10786 10786 10785 10783 10782 10781 10779 10778 10776 10773 10772 10770 10768 10765 10764 10762 10760 10757 10753 10751 10750 10748 10745 10744 10741 10740 10738 10737
10807 10807 10808 10809 10808 10807 10806 10805 10805 10804 10803 10803 10803 10802 10802 10802 10801 10801 10800 10799 10799 10799 10797 10796 10794 10793 10791 10790 10788 10788 10788 10787 10786 10785 10784 10784 10783 10782 10780 10779 10778 10776 10774 10772 10770 10769 10767 10764 10761 10760 10759 10756 10753 10751 10750 10748 10745 10743 10741 10740 10738 10736
10804 10805 10805 10806 10805 10803 10802 10800 10800 10800 10799 10799 10798 10798 10798 10798 10797 10797 10796 10796 10796 10796 10795 10794 10792 10790 10788 10787 10786 10786 10786 10786 10784 10783 10782 10781 10781 10780 10778 10777 10776 10774 10771 10770 10769 10768 10766 10762 10759 10759 10758 10755 10752 10750 10749 10747 10744 10743 10741 10739 10737 10735
10801 10802 10802 10802 10802 10800 10798 10796 10795 10795 10795 10794 10794 10794 10794 10794 10793 10793 10793 10793 10793 10793 10792 10791 10790 10788 10786 10784 10783 10784 10784 10784 10782 10781 10780 10779 10778 10777 10777 10775 10774 10772 10770 10769 10768 10767 10764 10759 10756 10756 10756 10755 10752 10749 10747 10745 10743 10742 10740 10738 10736 10735
10797 10799 10798 10798 10797 10796 10795 10793 10791 10790 10790 10790 10789 10790 10790 10790 10789 10789 10789 10789 10789 10789 10789 10788 10787 10786 10785 10782 10781 10781 10782 10782 10780 10779 10778 10777 10776 10775 10775 10774 10772 10770 10768 10768 10768 10766 10763 10758 10754 10754 10755 10754 10752 10748 10746 10744 10742 10741 10739 10737 10735 10734
10795 10796 10794 10793 10792 10792 10791 10789 10787 10786 10786 10786 10785 10786 10786 10785 10785 10785 10784 10784 10785 10785 10785 10785 10784 10783 10782 10780 10779 10779 10780 10780 10779 10777 10776 10775 10774 10773 10773 10772 10770 10767 10766 10767 10767 10765 10762 10757 10753 10752 10753 10753 10751 10748 10745 10743 10741 10740 10738 10737 10735 10733
10792 10792 10790 10788 10787 10787 10786 10785 10783 10782 10782 10781 10781 10781 10782 10781 10781 10781 10780 10780 10780 10780 10780 10780 10780 10779 10778 10777 10777 10777 10777 10778 10777 10775 10774 10773 10772 10771 10771 10770 10768 10765 10765 10765 10766 10764 10760 10756 10752 10751 10752 10751 10750 10748 10745 10742 10740 10738 10737 10736 10734 10732
10787 10787 10785 10783 10782 10781 10780 10779 10779 10778 10777 10777 10777 10777 10777 10777 10777 10777 10776 10775 10775 10775 10776 10776 10776 10775 10775 10774 10774 10774 10775 10775 10774 10773 10772 10771 10770 10770 10769 10768 10766 10764 10763 10764 10764 10762 10759 10755 10752 10751 10751 10749 10748 10746 10743 10741 10739 10737 10736 10734 10733 10731
10780 10780 10779 10776 10775 10775 10774 10773 10773 10773 10773 10773 10772 10771 10771 10772 10773 10772 10772 10771 10771 10771 10771 10771 10771 10771 10771 10770 10770 10771 10772 10772 10771 10770 10770 10769 10768 10768 10767 10766 10764 10762 10762 10763 10762 10760 10757 10754 10752 10750 10749 10748 10746 10744 10742 10740 10738 10736 10734 10733 10731 10730
10772 10773 10772 10769 10769 10769 10768 10768 10768 10769 10768 10768 10767 10766 10766 10767 10767 10767 10767 10766 10766 10766 10766 10766 10766 10767 10767 10766 10766 10768 10769 10769 10769 10768 10767 10766 10766 10765 10765 10763 10762 10761 10761 10762 10761 10758 10755 10752 10751 10750 10748 10746 10744 10742 10741 10739 10737 10735 10733 10731 10730 10729
10764 10765 10765 10763 10763 10763 10761 10761 10763 10764 10764 10763 10762 10761 10761 10761 10762 10762 10761 10761 10761 10761 10761 10762 10762 10763 10763 10763 10763 10764 10765 10766 10766 10765 10765 10764 10763 10763 10763 10761 10760 10759 10760 10760 10759 10756 10752 10751 10751 10749 10747 10744 10742 10741 10739 10737 10735 10733 10732 10730 10728 10727
10756 10758 10758 10757 10756 10755 10754 10754 10756 10758 10759 10758 10757 10757 10756 10756 10756 10756 10756 10756 10755 10756 10757 10758 10758 10759 10759 10759 10759 10760 10761 10762 10763 10763 10762 10761 10761 10761 10760 10759 10757 10757 10757 10758 10756 10753 10750 10749 10749 10748 10746 10743 10741 10740 10738 10736 10734 10732 10730 10728 10726 10725
10748 10750 10752 10750 10748 10747 10747 10747 10749 10751 10753 10754 10753 10752 10751 10750 10750 10750 10750 10750 10750 10751 10752 10754 10754 10755 10756 10756 10756 10757 10758 10759 10760 10760 10760 10759 10759 10759 10758 10757 10755 10754 10755 10755 10754 10751 10747 10747 10747 10746 10744 10742 10740 10739 10737 10735 10733 10730 10728 10726 10724 10723
10740 10743 10744 10742 10740 10740 10741 10742 10744 10745 10747 10748 10748 10747 10746 10745 10744 10745 10744 10745 10745 10747 10748 10749 10750 10751 10752 10753 10753 10753 10755 10756 10757 10758 10757 10757 10757 10757 10756 10755 10753 10751 10752 10752 10751 10749 10745 10744 10744 10743 10742 10740 10738 10737 10736 10733 10731 10729 10726 10725 10723 10722
10734 10736 10736 10734 10731 10733 10737 10738 10739 10740 10742 10743 10743 10742 10740 10739 10739 10739 10739 10740 10741 10743 10745 10746 10747 10748 10749 10749 10749 10750 10751 10753 10754 10755 10755 10755 10755 10755 10754 10753 10751 10749 10749 10749 10749 10747 10744 10742 10742 10741 10739 10737 10736 10735 10733 10731 10729 10727 10725 10723 10722 10721
10728 10729 10728 10724 10723 10729 10733 10734 10735 10736 10736 10737 10737 10737 10735 10735 10735 10735 10735 10737 10738 10739 10741 10742 10744 10745 10745 10745 10746 10747 10748 10750 10752 10752 10752 10752 10753 10753 10752 10751 10749 10747 10747 10746 10746 10745 10742 10740 10739 10739 10738 10736 10734 10732 10731 10729 10728 10726 10724 10722 10720 10719
10721 10721 10719 10717 10719 10726 10728 10728 10732 10732 10731 10732 10732 10732 10732 10731 10731 10731 10732 10734 10735 10736 10737 10738 10740 10742 10742 10742 10742 10743 10744 10747 10749 10749 10750 10750 10750 10750 10750 10749 10747 10746 10745 10744 10743 10744 10741 10738 10736 10736 10735 10734 10732 10730 10729 10727 10725 10724 10722 10720 10718 10717
10713 10712 10712 10712 10714 10718 10720 10723 10727 10728 10729 10730 10728 10728 10729 10728 10728 10728 10729 10731 10732 10733 10734 10735 10737 10738 10738 10738 10739 10740 10741 10743 10746 10747 10747 10748 10748 10748 10748 10747 10745 10744 10742 10741 10740 10741 10740 10737 10735 10734 10733 10731 10729 10727 10725 10724 10722 10721 10719 10718 10716 10715
10705 10704 10706 10707 10705 10707 10713 10717 10720 10722 10724 10725 10724 10725 10725 10725 10725 10726 10726 10728 10729 10730 10731 10732 10734 10734 10735 10735 10736 10737 10737 10740 10742 10744 10745 10745 10745 10746 10746 10744 10743 10742 10740 10738 10737 10738 10738 10736 10734 10732 10730 10728 10726 10724 10722 10720 10719 10718 10717 10715 10714 10713
10698 10697 10699 10700 10698 10702 10708 10711 10713 10716 10718 10718 10719 10722 10722 10720 10722 10723 10723 10725 10725 10726 10727 10729 10730 10731 10732 10732 10734 10735 10735 10737 10739 10741 10742 10743 10743 10743 10743 10742 10741 10741 10739 10736 10735 10734 10734 10734 10733 10731 10728 10725 10724 10722 10720 10718 10716 10715 10714 10712 10711 10711
10692 10691 10692 10693 10693 10698 10703 10705 10707 10711 10713 10713 10714 10717 10718 10718 10718 10719 10719 10721 10721 10722 10723 10725 10726 10728 10729 10729 10731 10733 10733 10734 10736 10738 10740 10740 10740 10740 10740 10739 10739 10739 10737 10734 10733 10732 10731 10731 10730 10729 10726 10724 10721 10719 10717 10716 10714 10713 10712 10711 10709 10709
10686 10685 10687 10688 10689 10694 10699 10700 10702 10705 10708 10709 10709 10711 10713 10715 10715 10715 10715 10716 10717 10719 10720 10721 10723 10724 10725 10726 10728 10730 10731 10732 10733 10735 10736 10737 10737 10737 10737 10736 10736 10736 10735 10733 10731 10730 10729 10728 10727 10726 10724 10721 10719 10717 10715 10714 10712 10711 10710 10709 10708 10706
10680 10681 10682 10684 10687 10691 10695 10696 10698 10701 10703 10704 10705 10706 10708 10710 10711 10711 10712 10713 10714 10715 10716 10718 10720 10721 10722 10723 10725 10726 10728 10729 10730 10731 10733 10733 10733 10733 10733 10733 10733 10732 10731 10730 10729 10728 10727 10725 10723 10722 10721 10719 10716 10714 10713 10711 10710 10709 10707 10706 10705 10704
10676 10677 10678 10681 10685 10689 10691 10692 10694 10697 10698 10699 10700 10702 10704 10705 10707 10708 10709 10710 10710 10711 10713 10715 10717 10717 10718 10720 10721 10723 10724 10726 10727 10728 10729 10730 10730 10730 10730 10730 10730 10728 10727 10727 10726 10725 10724 10722 10720 10719 10718 10716 10713 10712 10710 10708 10707 10706 10704 10703 10702 10701
10671 10674 10677 10680 10684 10687 10689 10690 10691 10693 10694 10694 10696 10698 10700 10701 10702 10704 10705 10707 10707 10709 10710 10712 10713 10714 10715 10716 10718 10719 10720 10722 10724 10725 10726 10726 10726 10726 10726 10727 10726 10725 10725 10724 10723 10722 10721 10719 10718 10717 10715 10713 10711 10709 10707 10705 10704 10702 10701 10700 10698 10697
10667 10671 10675 10679 10682 10684 10686 10687 10688 10689 10689 10689 10691 10694 10695 10696 10698 10699 10701 10703 10704 10705 10706 10708 10709 10710 10711 10713 10714 10715 10717 10718 10720 10721 10722 10722 10723 10723 10723 10724 10722 10721 10721 10721 10720 10719 10718 10716 10715 10714 10713 10711 10709 10706 10704 10702 10700 10699 10698 10696 10695 10694
10663 10667 10672 10675 10678 10679 10681 10682 10683 10684 10684 10684 10686 10688 10689 10691 10693 10694 10697 10698 10699 10700 10702 10704 10705 10707 10708 10710 10711 10712 10713 10714 10716 10717 10718 10719 10719 10720 10720 10720 10719 10718 10718 10718 10716 10716 10715 10714 10713 10712 10711 10708 10706 10704 10701 10699 10697 10696 10695 10694 10692 10691
10659 10662 10666 10669 10671 10673 10674 10677 10678 10678 10679 10680 10681 10683 10684 10686 10688 10690 10692 10694 10695 10696 10698 10699 10701 10703 10705 10706 10708 10709 10710 10711 10712 10713 10714 10715 10716 10716 10717 10716 10715 10715 10715 10714 10713 10712 10711 10710 10710 10709 10707 10705 10702 10700 10698 10696 10694 10693 10692 10691 10690 10688
10653 10656 10660 10664 10665 10667 10668 10671 10672 10673 10675 10676 10678 10680 10682 10683 10685 10686 10688 10690 10692 10694 10695 10695 10696 10698 10700 10702 10704 10705 10706 10707 10708 10709 10710 10711 10712 10713 10713 10712 10711 10712 10711 10710 10709 10709 10708 10708 10707 10706 10704 10702 10699 10697 10695 10693 10691 10690 10689 10688 10687 10685
10647 10649 10653 10657 10659 10661 10663 10665 10667 10669 10672 10674 10675 10678 10679 10680 10681 10682 10684 10686 10689 10692 10692 10691 10691 10693 10695 10698 10699 10700 10702 10703 10704 10705 10706 10707 10708 10709 10709 10708 10708 10708 10707 10706 10706 10705 10705 10705 10704 10702 10701 10699 10696 10694 10693 10691 10689 10687 10686 10685 10683 10682
10643 10645 10646 10650 10654 10656 10659 10662 10664 10666 10669 10671 10672 10674 10675 10675 10676 10677 10679 10682 10685 10688 10688 10686 10688 10690 10692 10693 10695 10696 10697 10698 10700 10701 10702 10703 10704 10705 10705 10705 10705 10704 10703 10702 10702 10702 10702 10702 10701 10699 10697 10695 10693 10692 10690 10688 10687 10685 10683 10682 10680 10679
10640 10643 10644 10647 10651 10654 10657 10660 10662 10664 10666 10668 10668 10668 10668 10669 10671 10672 10674 10677 10680 10683 10683 10683 10685 10687 10688 10689 10691 10692 10693 10694 10696 10697 10698 10699 10699 10700 10701 10701 10701 10700 10699 10698 10698 10698 10698 10698 10697 10695 10694 10692 10690 10688 10687 10685 10684 10682 10681 10679 10677 10675
10639 10643 10645 10647 10649 10651 10655 10657 10659 10661 10662 10664 10663 10661 10661 10662 10664 10667 10668 10671 10674 10676 10678 10679 10681 10682 10684 10685 10686 10688 10688 10690 10691 10693 10694 10694 10694 10695 10696 10697 10697 10696 10695 10694 10695 10695 10695 10694 10693 10692 10690 10689 10687 10685 10683 10682 10681 10680 10678 10676 10674 10672
10639 10643 10645 10645 10646 10648 10650 10652 10654 10655 10658 10659 10657 10656 10658 10659 10661 10663 10664 10665 10668 10671 10673 10674 10676 10678 10679 10680 10681 10682 10683 10685 10686 10688 10689 10689 10690 10691 10691 10692 10692 10691 10691 10691 10691 10691 10691 10690 10689 10688 10687 10685 10684 10682 10681 10679 10678 10677 10676 10674 10672 10670
10633 10635 10636 10638 10640 10641 10642 10643 10645 10648 10652 10654 10654 10654 10656 10658 10660 10662 10662 10662 10664 10665 10667 10669 10671 10673 10674 10675 10676 10677 10678 10680 10681 10682 10684 10685 10686 10686 10686 10686 10687 10687 10687 10687 10687 10687 10687 10686 10685 10684 10683 10682 10680 10679 10678 10676 10674 10674 10673 10671 10669 10667